This is the latest recevied weather packets stored in our database for station/object XW7RMR. If no packets are shown the sender has not sent any weather packets the latest 10 day(s).
| Time | Temp. | Humidity | Pressure | Rain* | Wind** | Luminosity | Snow |
|---|---|---|---|---|---|---|---|
| 1778013299 | 16.11° C | 72% | 1015.4 hPa | 0 mm | - | 202 W/m² | - |
| 1778012996 | 16.11° C | 73% | 1015.6 hPa | 0 mm | - | 187 W/m² | - |
| 1778012693 | 15.56° C | 74% | 1015.7 hPa | 0 mm | - | 168 W/m² | - |
| 1778012389 | 16.11° C | 73% | 1015.6 hPa | 0 mm | - | 161 W/m² | - |
| 1778012086 | 16.11° C | 73% | 1015.6 hPa | 0 mm | - | 168 W/m² | - |
| 1778011784 | 16.11° C | 73% | 1015.6 hPa | 0 mm | - | 187 W/m² | - |
| 1778011481 | 15.56° C | 75% | 1015.5 hPa | 0 mm | - | 219 W/m² | - |
| 1778011176 | 15.56° C | 75% | 1015.7 hPa | 0 mm | - | 244 W/m² | - |
| 1778010874 | 15.56° C | 75% | 1015.4 hPa | 0 mm | - | 277 W/m² | - |
| 1778010571 | 15° C | 76% | 1015.7 hPa | 0 mm | - | 282 W/m² | - |
| 1778010269 | 15.56° C | 75% | 1015.6 hPa | 0 mm | - | 251 W/m² | - |
| 1778009968 | 15° C | 76% | 1015.6 hPa | 0 mm | - | 261 W/m² | - |
| 1778009666 | 15° C | 76% | 1015.7 hPa | 0 mm | - | 293 W/m² | - |
| 1778009364 | 15.56° C | 75% | 1015.7 hPa | 0 mm | - | 275 W/m² | - |
| 1778009062 | 15.56° C | 75% | 1015.9 hPa | 0 mm | - | 219 W/m² | - |
| 1778008759 | 15.56° C | 74% | 1015.7 hPa | 0 mm | - | 224 W/m² | - |
| 1778008458 | 15.56° C | 76% | 1015.6 hPa | 0 mm | - | 221 W/m² | - |
| 1778008154 | 15° C | 76% | 1015.6 hPa | 0 mm | - | 219 W/m² | - |
| 1778007849 | 15° C | 77% | 1015.8 hPa | 0 mm | - | 207 W/m² | - |
| 1778007545 | 15° C | 76% | 1015.9 hPa | 0 mm | - | 199 W/m² | - |
| 1778007242 | 15° C | 75% | 1015.6 hPa | 0 mm | - | 191 W/m² | - |
| 1778006938 | 15.56° C | 75% | 1015.7 hPa | 0 mm | - | 199 W/m² | - |
| 1778006635 | 15.56° C | 75% | 1015.8 hPa | 0 mm | - | 211 W/m² | - |
| 1778006333 | 15° C | 75% | 1015.6 hPa | 0 mm | - | 234 W/m² | - |
| 1778006029 | 15° C | 76% | 1015.7 hPa | 0 mm | - | 215 W/m² | - |
* Rain latest hour (hover to see other rain measurements)
** Current wind speed in m/s (hover to see current wind gust speed)